1998-067RU (46924 NORAD) Tracking and Keplerian Element Data

This shows tracking and keplerian element data for the satellite.

Feedback or suggestion? Click here.




ElementValue
Catalog46924
Name1998-067RU
Epoch Orbit1194
Epoch Day20.9373367
Epoch Year2021
RAAN349.7231
Inclination51.6434
Eccentricity0.0001053
Argument of Perigee0.5837
Mean Anonmoly359.5155
Mean Motion15.529024
Decay Rate0.00015328
L11 46924U 98067RU 21020.93733670 .00015328 00000-0 24907-3 0 9992
L22 46924 51.6434 349.7231 0001053 0.5837 359.5155 15.52902400 11947

Live tracking and technical data element details for 1998-067RU (NORAD 46924). 1998-067RU can be tracked NOW for your location showing map with azimuth and elevation plus other details from your city location.

Track the satellite on the map from your city or location and see movement details for azimuth, elevation, latitude, longitude, range, height, and movement on the map or in text.







IsCatalogInMostPopularTable: catalog: 46924, numindb: 28
Update: records affected: 1



GetName: 46924 1998-067RU

Hit Count: updated at: Fri, 22 Jan 2021 16:07:38 GMT